• Join FlightAware (Why Join?)
  • Login
  • US Flag 
06:38AM EDT


 

Airport Tracker/Info


-or-


 

Live Flight TrackerFlight Track Log ✈ BMBR606 ✈ 28-Feb-2013 ✈ YPJT / JAD - YPJT / JAD

Flight Track Log - Related Links

Times and Time Zones

All times are in EST time to prevent confusion due to time zone crossing. See the BMBR606 flight status page for this flight to view local times or setup timezone preferences in your user account.

Time Position Orientation Groundspeed Altitude Reporting Facility
EST Latitude Longitude Course Direction KTS MPH feet Rate Location/Type
11:25PM -31.9981 115.7583 359° North 145 167 1,300  Level Aus ATC (RADAR)
11:25PM -31.9781 115.7578 359° North 145 167 1,300  Level Aus ATC (RADAR)
11:26PM -31.9382 115.7578 360° North 143 165 1,300  Level Aus ATC (RADAR)
11:26PM -31.9244 115.7585 North 144 166 1,300 120 Level Aus ATC (RADAR)
11:28PM -31.8747 115.7816 22° Northeast 133 153 1,600 60 Climbing Aus ATC (RADAR)
11:28PM -31.8682 115.7944 59° Northeast 134 154 1,500 60 Descending Aus ATC (RADAR)
11:29PM -31.8564 115.8176 59° Northeast 139 160 1,700 60 Climbing Aus ATC (RADAR)
11:30PM -31.8421 115.8486 61° Northeast 141 162 1,600  Descending Aus ATC (RADAR)
11:30PM -31.8290 115.8764 61° Northeast 142 163 1,700 -120 Climbing Aus ATC (RADAR)
11:31PM -31.8095 115.9168 60° Northeast 140 161 1,400 -120 Descending Aus ATC (RADAR)
11:32PM -31.7984 115.9399 61° Northeast 135 155 1,600 60 Climbing Aus ATC (RADAR)
11:34PM -31.7661 116.0128 62° Northeast 130 150 1,600 -60 Level Aus ATC (RADAR)
11:34PM -31.7624 116.0224 66° East 128 147 1,500 -120 Descending Aus ATC (RADAR)
11:35PM -31.7501 116.0504 63° Northeast 141 162 1,500 -120 Level Aus ATC (RADAR)
11:35PM -31.7297 116.0825 53° Northeast 149 171 1,400 -240 Descending Aus ATC (RADAR)
11:36PM -31.7107 116.0654 323° Northwest 157 181 1,200 -240 Descending Aus ATC (RADAR)
11:37PM -31.7158 116.0281 261° West 166 191 1,100 -240 Descending Aus ATC (RADAR)
11:37PM -31.7047 116.0323 18° North 151 174 1,000 -360 Descending Aus ATC (RADAR)
11:38PM -31.7283 116.0753 123° Southeast 131 151 600 60 Descending Aus ATC (RADAR)
11:39PM -31.7417 116.0690 202° Southwest 137 158 1,100 600 Climbing Aus ATC (RADAR)
11:39PM -31.7288 116.0464 304° West 148 170 1,200 180 Climbing Aus ATC (RADAR)
11:40PM -31.7101 116.0807 57° Northeast 130 150 1,400 60 Climbing Aus ATC (RADAR)
11:41PM -31.6951 116.0892 26° Northeast 134 154 1,300  Descending Aus ATC (RADAR)
11:42PM -31.6680 116.0620 320° Northwest 150 173 1,400 -120 Climbing Aus ATC (RADAR)
11:42PM -31.6573 116.0496 315° West 157 181 1,200 -780 Descending Aus ATC (RADAR)
11:43PM -31.6631 116.0141 259° West 162 186 300 -600 Descending Aus ATC (RADAR)
11:44PM -31.6753 116.0146 178° South 93 107 200  Descending Aus ATC (RADAR)
11:44PM -31.6787 116.0150 174° South 28 32 300  Climbing Aus ATC (RADAR)
11:45PM -31.6787 116.0173 92° East 7 8 200 -120 Descending Aus ATC (RADAR)
11:45PM -31.6786 116.0193 85° East 16 18 200 60 Level Aus ATC (RADAR)
11:46PM -31.6797 116.0204 142° Southeast 12 14 300  Climbing Aus ATC (RADAR)
11:47PM -31.6803 116.0203 188° South 7 8 200 -120 Descending Aus ATC (RADAR)
11:47PM -31.6796 116.0213 53° Northeast 8 9 200  Level Aus ATC (RADAR)
11:48PM -31.6796 116.0205 273° West 5 6 200  Level Aus ATC (RADAR)
11:48PM -31.6799 116.0207 156° South 3 3 200  Level Aus ATC (RADAR)
11:49PM -31.6797 116.0209 44° Northeast 4 5 200  Level Aus ATC (RADAR)
11:50PM -31.6799 116.0206 233° Southwest 2 2 200  Level Aus ATC (RADAR)
11:50PM -31.6800 116.0206 178° South 2 2 200  Level Aus ATC (RADAR)
11:51PM -31.6796 116.0201 312° West 5 6 200  Level Aus ATC (RADAR)
11:52PM -31.6746 116.0207 North 26 30 200 60 Level Aus ATC (RADAR)
11:52PM -31.6710 116.0224 22° Northeast 22 25 300  Climbing Aus ATC (RADAR)
11:54PM -31.6652 116.0182 328° Northwest 15 17 200  Descending Aus ATC (RADAR)
11:54PM -31.6654 116.0180 232° Southwest 9 10 300  Climbing Aus ATC (RADAR)
11:55PM -31.6678 116.0151 225° Southwest 18 21 200 -120 Descending Aus ATC (RADAR)
11:55PM -31.6693 116.0149 190° South 17 20 200 60 Level Aus ATC (RADAR)
11:56PM -31.6715 116.0144 191° South 23 26 300 60 Climbing Aus ATC (RADAR)
11:56PM -31.6863 116.0163 174° South 93 107 300 180 Level Aus ATC (RADAR)
11:57PM -31.7137 116.0215 171° South 119 137 600 240 Climbing Aus ATC (RADAR)
11:59PM -31.7447 116.0520 140° Southeast 110 127 900 180 Climbing Aus ATC (RADAR)
11:59PM -31.7409 116.0642 69° East 114 131 1,000 300 Climbing Aus ATC (RADAR)
12:00AM -31.7231 116.0808 38° Northeast 130 150 1,200 480 Climbing Aus ATC (RADAR)
12:00AM -31.7031 116.0672 330° Northwest 142 163 1,600 300 Climbing Aus ATC (RADAR)
12:01AM -31.7173 116.0396 239° Southwest 158 182 1,600  Level Aus ATC (RADAR)
12:02AM -31.7385 116.0638 136° Southeast 139 160 1,600 -240 Level Aus ATC (RADAR)
12:02AM -31.7376 116.0762 85° East 143 165 1,400 -120 Descending Aus ATC (RADAR)
12:03AM -31.7047 116.0942 25° Northeast 154 177 1,500  Climbing Aus ATC (RADAR)
12:03AM -31.7194 116.0962 173° South 147 169 1,400 -780 Descending Aus ATC (RADAR)
12:04AM -31.7199 116.0707 269° West 172 198 800 -300 Descending Aus ATC (RADAR)
12:04AM -31.7299 116.0431 247° West 157 181 1,100 240 Climbing Aus ATC (RADAR)
12:05AM -31.7485 116.0555 150° Southeast 126 145 1,100 -120 Level Aus ATC (RADAR)
12:06AM -31.7306 116.0758 44° Northeast 140 161 1,000 -300 Descending Aus ATC (RADAR)
12:06AM -31.7142 116.0802 13° North 145 167 800 300 Descending Aus ATC (RADAR)
12:08AM -31.7216 116.0978 117° Southeast 126 145 1,600 300 Climbing Aus ATC (RADAR)
12:09AM -31.7154 116.0407 277° West 146 168 1,600  Level Aus ATC (RADAR)
12:09AM -31.7151 116.0243 271° West 145 167 1,600 -240 Level Aus ATC (RADAR)
12:10AM -31.7005 116.0024 308° West 147 169 1,400 -300 Descending Aus ATC (RADAR)
12:11AM -31.6629 115.9952 351° North 148 170 1,200 -300 Descending Aus ATC (RADAR)
12:11AM -31.6404 115.9925 354° North 142 163 1,000 -540 Descending Aus ATC (RADAR)
12:12AM -31.6524 116.0124 125° Southeast 134 154 500 -780 Descending Aus ATC (RADAR)
12:12AM -31.6623 116.0132 176° South 139 160 200 -180 Descending Aus ATC (RADAR)
12:13AM -31.6792 116.0162 171° South 21 24 300 60 Climbing Aus ATC (RADAR)
12:14AM -31.6785 116.0177 62° Northeast 9 10 300  Level Aus ATC (RADAR)
12:14AM -31.6787 116.0180 123° Southeast 5 6 300  Level Aus ATC (RADAR)
12:15AM -31.6783 116.0201 79° East 12 14 300  Level Aus ATC (RADAR)
12:15AM -31.6804 116.0202 178° South 10 12 300  Level Aus ATC (RADAR)
12:16AM -31.6801 116.0203 12° North 1 1 300  Level Aus ATC (RADAR)
12:17AM -31.6800 116.0201 304° West 5 6 300  Level Aus ATC (RADAR)
12:19AM -31.6802 116.0202 155° Southeast 2 2 300 -60 Level Aus ATC (RADAR)
12:19AM -31.6788 116.0207 16° North 10 12 200  Descending Aus ATC (RADAR)
12:19AM -31.6784 116.0201 306° West 11 13 300 60 Climbing Aus ATC (RADAR)
12:20AM -31.6730 116.0216 13° North 28 32 300  Level Aus ATC (RADAR)
12:21AM -31.6696 116.0224 12° North 20 23 300  Level Aus ATC (RADAR)
12:21AM -31.6674 116.0211 335° Northwest 16 18 300  Level Aus ATC (RADAR)
12:22AM -31.6660 116.0176 294° West 12 14 300  Level Aus ATC (RADAR)
12:23AM -31.6671 116.0165 223° Southwest 14 16 300  Level Aus ATC (RADAR)
12:24AM -31.6676 116.0158 229° Southwest 2 2 300  Level Aus ATC (RADAR)
12:24AM -31.6684 116.0151 216° Southwest 9 10 300  Level Aus ATC (RADAR)
12:25AM -31.6722 116.0146 186° South 31 36 300 120 Level Aus ATC (RADAR)
12:26AM -31.6957 116.0179 173° South 107 123 500 240 Climbing Aus ATC (RADAR)
12:26AM -31.7176 116.0209 173° South 119 137 700 360 Climbing Aus ATC (RADAR)
12:27AM -31.7418 116.0471 137° Southeast 113 130 1,200 360 Climbing Aus ATC (RADAR)
12:28AM -31.7402 116.0637 83° East 118 136 1,300  Climbing Aus ATC (RADAR)
12:29AM -31.7003 116.0783 17° North 143 165 1,200  Descending Aus ATC (RADAR)
12:30AM -31.7103 116.0454 250° West 151 174 1,400 180 Climbing Aus ATC (RADAR)
12:31AM -31.7351 116.0536 164° South 124 143 1,600 -120 Climbing Aus ATC (RADAR)
12:31AM -31.7312 116.0758 78° East 119 137 1,300 -60 Descending Aus ATC (RADAR)
12:33AM -31.6979 116.0594 337° Northwest 149 171 1,500  Climbing Aus ATC (RADAR)
12:34AM -31.7377 116.0603 179° South 130 150 1,300 -120 Descending Aus ATC (RADAR)
12:34AM -31.7346 116.0822 81° East 131 151 1,300 -180 Level Aus ATC (RADAR)
12:35AM -31.7281 116.0907 48° Northeast 133 153 1,200 -600 Descending Aus ATC (RADAR)
12:35AM -31.7068 116.0835 344° North 148 170 800  Descending Aus ATC (RADAR)
12:36AM -31.7186 116.0444 250° West 155 178 1,200 360 Climbing Aus ATC (RADAR)
12:37AM -31.7318 116.0654 127° Southeast 129 148 1,400 180 Climbing Aus ATC (RADAR)
12:38AM -31.7062 116.0816 28° Northeast 143 165 1,500 60 Climbing Aus ATC (RADAR)
12:39AM -31.7113 116.0327 263° West 155 178 1,600  Climbing Aus ATC (RADAR)
12:39AM -31.7023 116.0484 56° Northeast 137 158 1,500 -120 Descending Aus ATC (RADAR)
12:40AM -31.7156 116.0857 113° Southeast 137 158 1,500  Level Aus ATC (RADAR)
12:41AM -31.7299 116.0583 239° Southwest 152 175 1,500 -120 Level Aus ATC (RADAR)
12:42AM -31.7120 116.0389 317° Northwest 155 178 1,400 -480 Descending Aus ATC (RADAR)
12:42AM -31.7100 116.0740 86° East 138 159 900  Descending Aus ATC (RADAR)
12:43AM -31.7112 116.0841 98° East 131 151 1,400 360 Climbing Aus ATC (RADAR)
12:44AM -31.7371 116.0582 220° Southwest 168 193 1,400  Level Aus ATC (RADAR)
12:44AM -31.7286 116.0333 292° West 159 183 1,400 60 Level Aus ATC (RADAR)
12:45AM -31.7263 116.0122 277° West 154 177 1,500  Climbing Aus ATC (RADAR)
12:45AM -31.7021 116.0036 343° North 150 173 1,400 -120 Descending Aus ATC (RADAR)
12:46AM -31.6760 115.9980 350° North 140 161 1,400  Level Aus ATC (RADAR)
12:47AM -31.6501 115.9943 353° North 141 162 1,400 -240 Level Aus ATC (RADAR)
12:47AM -31.6338 115.9924 354° North 142 163 1,200 -480 Descending Aus ATC (RADAR)
12:48AM -31.6358 116.0112 97° East 125 144 900 -660 Descending Aus ATC (RADAR)
12:48AM -31.6541 116.0123 177° South 115 132 400 -360 Descending Aus ATC (RADAR)
12:49AM -31.6788 116.0156 173° South 16 18 300 -120 Descending Aus ATC (RADAR)
12:50AM -31.6785 116.0171 76° East 11 13 300 -240 Level Aus ATC (RADAR)
12:50AM -31.6786 116.0188 93° East 8 9 100  Descending Aus ATC (RADAR)
12:52AM -31.6787 116.0205 94° East 15 17 400 60 Climbing Aus ATC (RADAR)
12:52AM -31.6797 116.0202 192° South 2 2 300 -120 Descending Aus ATC (RADAR)
12:53AM -31.6797 116.0203 55° Northeast 1 1 300 -240 Level Aus ATC (RADAR)
12:53AM -31.6803 116.0206 157° South 6 7 100  Descending Aus ATC (RADAR)
01:07AM -31.7004 116.0185 185° South 112 129 400  Climbing Aus ATC (RADAR)
01:08AM -31.7266 116.0285 162° South 119 137 900 480 Climbing Aus ATC (RADAR)
01:08AM -31.7328 116.0394 124° Southeast 117 135 1,000 300 Climbing Aus ATC (RADAR)
01:09AM -31.7313 116.0743 87° East 123 142 1,300 300 Climbing Aus ATC (RADAR)
01:10AM -31.7143 116.0846 27° Northeast 134 154 1,500 300 Climbing Aus ATC (RADAR)
01:10AM -31.6994 116.0729 326° Northwest 143 165 1,600 60 Climbing Aus ATC (RADAR)
01:11AM -31.7083 116.0433 251° West 163 188 1,600 60 Level Aus ATC (RADAR)
01:12AM -31.7357 116.0548 160° South 144 166 1,700  Climbing Aus ATC (RADAR)
01:12AM -31.7217 116.0793 56° Northeast 143 165 1,600 -180 Descending Aus ATC (RADAR)
01:13AM -31.6984 116.0519 315° West 159 183 1,500 -120 Descending Aus ATC (RADAR)
01:14AM -31.6899 116.0650 53° Northeast 141 162 1,500 -240 Level Aus ATC (RADAR)
01:15AM -31.7165 116.0911 140° Southeast 137 158 1,200 -240 Descending Aus ATC (RADAR)
01:15AM -31.7289 116.0771 224° Southwest 140 161 1,200  Level Aus ATC (RADAR)
01:15AM -31.7329 116.0562 257° West 151 174 1,200 60 Level Aus ATC (RADAR)
01:16AM -31.7114 116.0396 327° Northwest 153 176 1,300 -120 Climbing Aus ATC (RADAR)
01:17AM -31.7063 116.0731 80° East 134 154 1,100 60 Descending Aus ATC (RADAR)
01:17AM -31.7197 116.0887 135° Southeast 126 145 1,400 60 Climbing Aus ATC (RADAR)
01:18AM -31.7371 116.0568 237° Southwest 149 171 1,200 -120 Descending Aus ATC (RADAR)
01:19AM -31.7524 116.0692 145° Southeast 136 157 1,300 -60 Climbing Aus ATC (RADAR)
01:20AM -31.7064 116.0875 19° North 143 165 1,100 -300 Descending Aus ATC (RADAR)
01:20AM -31.7068 116.0680 269° West 150 173 900 60 Descending Aus ATC (RADAR)
01:21AM -31.6969 116.0443 296° West 137 158 1,200 240 Climbing Aus ATC (RADAR)
01:22AM -31.6979 116.0636 93° East 125 144 1,300 60 Climbing Aus ATC (RADAR)
01:22AM -31.7130 116.0817 134° Southeast 128 147 1,300 240 Level Aus ATC (RADAR)
01:23AM -31.7392 116.0629 211° Southwest 159 183 1,700 300 Climbing Aus ATC (RADAR)
01:24AM -31.7410 116.0416 264° West 156 180 1,700 -420 Level Aus ATC (RADAR)
01:25AM -31.7117 116.0118 319° Northwest 157 181 1,200 -360 Descending Aus ATC (RADAR)
01:25AM -31.6931 116.0202 21° North 143 165 1,200 -180 Level Aus ATC (RADAR)
01:26AM -31.6596 116.0273 10° North 135 155 1,000 -420 Descending Aus ATC (RADAR)
01:27AM -31.6497 116.0077 301° West 141 162 600 -540 Descending Aus ATC (RADAR)
01:27AM -31.6696 116.0143 164° South 123 142 300 -240 Descending Aus ATC (RADAR)
01:28AM -31.6789 116.0161 171° South 35 40 300  Level Aus ATC (RADAR)
01:29AM -31.6787 116.0173 78° East 9 10 300  Level Aus ATC (RADAR)
01:29AM -31.6786 116.0194 86° East 12 14 300  Level Aus ATC (RADAR)
01:30AM -31.6777 116.0207 51° Northeast 8 9 300  Level Aus ATC (RADAR)
01:41AM -31.7089 116.0190 183° South 117 135 600  Climbing Aus ATC (RADAR)
01:42AM -31.7210 116.0253 156° South 114 131 900 360 Climbing Aus ATC (RADAR)
01:43AM -31.7337 116.0624 112° Southeast 106 122 1,200 240 Climbing Aus ATC (RADAR)
01:43AM -31.7293 116.0776 71° East 112 129 1,300 120 Climbing Aus ATC (RADAR)
01:44AM -31.7026 116.1028 39° Northeast 132 152 1,400 -60 Climbing Aus ATC (RADAR)
01:45AM -31.6786 116.0851 328° Northwest 143 165 1,200 -300 Descending Aus ATC (RADAR)
01:46AM -31.7029 116.0865 177° South 134 154 900 120 Descending Aus ATC (RADAR)
01:48AM -31.7302 116.0334 239° Southwest 135 155 1,500 240 Climbing Aus ATC (RADAR)
01:48AM -31.7064 116.0302 353° North 146 168 1,600 -180 Climbing Aus ATC (RADAR)
01:49AM -31.6752 116.0298 359° North 132 152 1,300 -180 Descending Aus ATC (RADAR)
01:50AM -31.6565 116.0293 359° North 133 153 1,400 180 Climbing Aus ATC (RADAR)